Roxboro, NC

5:19 AM EST on December 13, 2017 (GMT -0500)
Person County

Weather History for KTDF - February, 2012

Change the Weather History Date:

Sunday, February 19, 2012

  Actual Average Record
Temperature  
Mean Temperature 42 °F -  
Max Temperature 53 °F 51 °F 72 °F (1971)
Min Temperature 32 °F 31 °F 6 °F (1979)
Degree Days  
Heating Degree Days 22    
Moisture  
Dew Point 33 °F    
Average Humidity 84    
Maximum Humidity 100    
Minimum Humidity 41    
Precipitation  
Precipitation 0.18 in - - ()
Sea Level Pressure  
Sea Level Pressure 29.92 in    
Wind  
Wind Speed 8 mph (NE)    
Max Wind Speed 18 mph    
Max Gust Speed 29 mph    
Visibility 7 miles    
Events Rain , Snow    
Averages and records for this station are not official NWS values.
T = Trace of Precipitation, MM = Missing Value Source: NWS Daily Summary

Daily Weather History Graph

Daily Weather History Graph

Search for Another Location

Airport or City:

Trip Planner

Search our weather history database for the weather conditions in past years. The results will help you decide how hot, cold, wet, or windy it might be!

Date:

Astronomy

Feb. 19, 2012 Rise Set
Actual Time 6:59 AM EST 6:00 PM EST
Civil Twilight 6:33 AM EST 6:26 PM EST
Nautical Twilight 6:03 AM EST 6:56 PM EST
Astronomical Twilight 5:33 AM EST 7:26 PM EST
Moon 5:16 AM EST (2/19) 4:02 PM EST (2/19)
Length of Visible Light 11h 53m
Length of Day
11h 00m
Waning Crescent, 5% of the Moon is Illuminated
Feb 19
Waning Crescent
Feb 21
New
Feb 29
First Quarter
Mar 8
Full
Mar 14
Last Quarter

Hourly Weather History & Observations

Time (EST) Temp. Windchill Dew Point Humidity Pressure Visibility Wind Dir Wind Speed Gust Speed Precip Events Conditions
12:15 AM 46.4 °F - 41.0 °F 81% 29.98 in 10.0 mi Calm Calm - N/A   Overcast
12:35 AM 46.4 °F - 41.0 °F 81% 29.98 in 10.0 mi Calm Calm - N/A   Overcast
12:55 AM 46.4 °F - 41.0 °F 81% 29.98 in 10.0 mi Calm Calm - N/A   Overcast
1:15 AM 46.4 °F - 41.0 °F 81% 29.98 in 10.0 mi Calm Calm - N/A   Overcast
1:35 AM 50.0 °F - 37.4 °F 62% 29.97 in 10.0 mi NNE 4.6 mph - N/A   Overcast
1:55 AM 53.6 °F - 33.8 °F 47% 29.97 in 10.0 mi NE 3.5 mph - N/A   Overcast
2:15 AM 53.6 °F - 32.0 °F 44% 29.98 in 10.0 mi NE 6.9 mph - N/A   Overcast
2:35 AM 53.6 °F - 30.2 °F 41% 29.98 in 10.0 mi NE 9.2 mph - N/A   Overcast
2:55 AM 51.8 °F - 32.0 °F 47% 29.97 in 10.0 mi NE 10.4 mph - N/A   Light Drizzle
3:15 AM 50.0 °F - 33.8 °F 54% 29.95 in 10.0 mi NE 8.1 mph - N/A   Light Drizzle
3:35 AM 50.0 °F - 33.8 °F 54% 29.94 in 10.0 mi NE 11.5 mph - N/A   Light Drizzle
3:55 AM 50.0 °F - 33.8 °F 54% 29.93 in 10.0 mi NE 11.5 mph - N/A   Overcast
4:15 AM 48.2 °F - 33.8 °F 58% 29.92 in 10.0 mi ENE 11.5 mph 16.1 mph N/A   Overcast
4:35 AM 48.2 °F - 33.8 °F 58% 29.91 in 10.0 mi ENE 9.2 mph - N/A   Overcast
4:55 AM 48.2 °F - 32.0 °F 54% 29.93 in 10.0 mi NE 11.5 mph 18.4 mph N/A   Overcast
5:15 AM 46.4 °F 41.1 °F 32.0 °F 57% 29.94 in 10.0 mi NE 11.5 mph 16.1 mph N/A   Overcast
5:35 AM 46.4 °F 40.7 °F 32.0 °F 57% 29.94 in 10.0 mi ENE 12.7 mph 19.6 mph N/A   Overcast
5:55 AM 46.4 °F 40.4 °F 32.0 °F 57% 29.94 in 10.0 mi ENE 13.8 mph - N/A   Overcast
6:15 AM 46.4 °F 40.4 °F 32.0 °F 57% 29.95 in 10.0 mi ENE 13.8 mph 26.5 mph N/A   Overcast
6:35 AM 44.6 °F 36.9 °F 32.0 °F 61% 29.95 in 10.0 mi NE 18.4 mph 28.8 mph N/A Rain Light Rain
6:55 AM 44.6 °F 37.8 °F 32.0 °F 61% 29.96 in 10.0 mi NE 15.0 mph 24.2 mph N/A   Overcast
7:35 AM 42.8 °F 36.2 °F 32.0 °F 66% 29.97 in 10.0 mi ENE 12.7 mph 18.4 mph N/A   Overcast
7:55 AM 42.8 °F 35.8 °F 33.8 °F 70% 29.98 in 10.0 mi NE 13.8 mph - N/A   Overcast
8:15 AM 41.0 °F 33.5 °F 32.0 °F 70% 29.99 in 10.0 mi NE 13.8 mph 18.4 mph N/A   Overcast
8:35 AM 41.0 °F 34.7 °F 33.8 °F 76% 29.98 in 10.0 mi NE 10.4 mph 16.1 mph N/A Rain Light Rain
8:55 AM 41.0 °F 35.2 °F 33.8 °F 76% 29.99 in 10.0 mi NE 9.2 mph 17.3 mph N/A   Overcast
9:15 AM 39.2 °F 34.2 °F 33.8 °F 81% 30.01 in 10.0 mi NE 6.9 mph - N/A Rain Light Rain
9:35 AM 39.2 °F 33.0 °F 35.6 °F 87% 30.00 in 7.0 mi NNE 9.2 mph - N/A Rain Light Rain
9:55 AM 37.4 °F 31.4 °F 35.6 °F 93% 29.99 in 10.0 mi NNE 8.1 mph - 0.01 in Rain Light Rain
10:15 AM 37.4 °F 30.3 °F 33.8 °F 87% 29.99 in 10.0 mi NE 10.4 mph 20.7 mph N/A   Overcast
10:35 AM 37.4 °F 30.3 °F 33.8 °F 87% 29.99 in 5.0 mi NE 10.4 mph - N/A Rain Rain
10:55 AM 37.4 °F 30.3 °F 33.8 °F 87% 29.98 in 7.0 mi NE 10.4 mph - N/A Rain Rain
11:15 AM 37.4 °F 29.8 °F 33.8 °F 87% 29.97 in 7.0 mi NE 11.5 mph 16.1 mph 0.01 in Rain Light Rain
11:35 AM 37.4 °F 28.5 °F 33.8 °F 87% 29.96 in 10.0 mi NE 15.0 mph - 0.01 in   Drizzle
11:55 AM 35.6 °F 27.5 °F 33.8 °F 93% 29.95 in 7.0 mi NE 11.5 mph 19.6 mph N/A   Light Drizzle
12:15 PM 35.6 °F 27.1 °F 33.8 °F 93% 29.93 in 7.0 mi NE 12.7 mph 19.6 mph N/A Rain Light Rain
1:35 PM 35.6 °F 28.0 °F 33.8 °F 93% 29.88 in 4.0 mi NE 10.4 mph - N/A Rain Light Rain
1:55 PM 33.8 °F 24.3 °F 33.8 °F 100% 29.84 in 3.0 mi NE 13.8 mph 18.4 mph N/A Rain Light Rain
2:15 PM 33.8 °F 23.5 °F 33.8 °F 100% 29.84 in 4.0 mi NE 16.1 mph 21.9 mph N/A Rain Light Rain
2:35 PM 33.8 °F 26.4 °F 33.8 °F 100% 29.84 in 2.5 mi NNE 9.2 mph 21.9 mph N/A Rain Light Rain
2:55 PM 33.8 °F 23.9 °F 33.8 °F 100% 29.81 in 3.0 mi NE 15.0 mph 20.7 mph N/A Rain Light Rain
3:15 PM 33.8 °F 24.3 °F 33.8 °F 100% 29.80 in 5.0 mi NE 13.8 mph 21.9 mph N/A Rain Light Rain
3:35 PM 33.8 °F 24.3 °F 33.8 °F 100% 29.80 in 7.0 mi NE 13.8 mph 19.6 mph N/A Rain Light Rain
3:55 PM 33.8 °F 25.3 °F 33.8 °F 100% 29.78 in 2.5 mi NE 11.5 mph 20.7 mph 0.01 in Rain Light Rain
4:15 PM 33.8 °F 27.0 °F 33.8 °F 100% 29.79 in 2.0 mi North 8.1 mph - 0.01 in Rain Light Rain
4:35 PM 33.8 °F - 33.8 °F 100% 29.87 in 1.8 mi Calm Calm - 0.04 in   Overcast
4:55 PM 33.8 °F 30.8 °F 33.8 °F 100% 29.86 in 1.8 mi NNE 3.5 mph - 0.07 in Snow Light Snow
5:15 PM 32.0 °F 25.6 °F 32.0 °F 100% 29.85 in 0.5 mi NNE 6.9 mph - 0.01 in Snow Snow
5:35 PM 32.0 °F 21.6 °F 32.0 °F 100% 29.81 in 1.8 mi NE 15.0 mph - 0.02 in Snow Light Snow
5:55 PM 32.0 °F 22.5 °F 32.0 °F 100% 29.81 in 3.0 mi NE 12.7 mph 16.1 mph 0.02 in Snow Light Snow
6:15 PM 32.0 °F 24.8 °F 32.0 °F 100% 29.82 in 7.0 mi NNE 8.1 mph 16.1 mph N/A   Overcast
6:35 PM 32.0 °F 23.0 °F 32.0 °F 100% 29.81 in 7.0 mi NNE 11.5 mph 16.1 mph N/A Snow Light Snow
6:55 PM 32.0 °F 24.2 °F 32.0 °F 100% 29.83 in 10.0 mi NNE 9.2 mph 19.6 mph N/A Snow Light Snow
7:15 PM 32.0 °F 21.2 °F 32.0 °F 100% 29.83 in 3.0 mi NNE 16.1 mph 25.3 mph 0.01 in Snow Light Snow
7:35 PM 32.0 °F 23.6 °F 32.0 °F 100% 29.85 in 4.0 mi NNE 10.4 mph 16.1 mph 0.01 in Snow Light Snow
7:55 PM 32.0 °F 24.8 °F 32.0 °F 100% 29.89 in 3.0 mi North 8.1 mph 16.1 mph 0.02 in Snow Light Snow
8:15 PM 32.0 °F 24.2 °F 32.0 °F 100% 29.89 in 1.8 mi North 9.2 mph - 0.01 in Snow Light Snow
8:35 PM 32.0 °F 23.6 °F 32.0 °F 100% 29.89 in 1.2 mi North 10.4 mph 16.1 mph 0.02 in Snow Light Snow
8:55 PM 32.0 °F 23.6 °F 32.0 °F 100% 29.89 in 0.8 mi North 10.4 mph 19.6 mph 0.03 in Snow Snow
9:15 PM 32.0 °F 22.1 °F 32.0 °F 100% 29.89 in 0.8 mi North 13.8 mph 21.9 mph 0.01 in Snow Snow
9:35 PM 32.0 °F 24.2 °F 32.0 °F 100% 29.91 in 1.5 mi North 9.2 mph 20.7 mph 0.01 in Snow Light Snow
9:55 PM 32.0 °F 22.5 °F 32.0 °F 100% 29.91 in 2.5 mi North 12.7 mph 18.4 mph 0.01 in Snow Light Snow
10:15 PM 32.0 °F 23.6 °F 32.0 °F 100% 29.92 in 3.0 mi North 10.4 mph 17.3 mph N/A Snow Light Snow
10:35 PM 32.0 °F 25.6 °F 32.0 °F 100% 29.93 in 3.0 mi North 6.9 mph 16.1 mph N/A Snow Light Snow
10:55 PM 32.0 °F 23.0 °F 32.0 °F 100% 29.92 in 4.0 mi North 11.5 mph 17.3 mph N/A Snow Light Snow
11:15 PM 32.0 °F 23.6 °F 32.0 °F 100% 29.93 in 5.0 mi North 10.4 mph 17.3 mph N/A Snow Light Snow
11:35 PM 32.0 °F 24.2 °F 32.0 °F 100% 29.93 in 5.0 mi North 9.2 mph - N/A Snow Light Snow
11:55 PM 32.0 °F 23.6 °F 32.0 °F 100% 29.94 in 10.0 mi North 10.4 mph 19.6 mph N/A   Overcast